Back to catalog

RASSVET-3 28

AlivePO
NORAD 100094·PAYLOAD·🇷🇺 Russia

Launched Jul 19, 2026 from Plesetsk Cosmodrome

Loading…

Next Passes (next 24 hours)

TLE

FreshSource: Space-Track

Epoch: Sep 14, 2026, 05:32 UTC

1 A0094U 26165M   26257.23100633 -.00086225  00000-0 -83289-3 0  9991
2 A0094  82.3009 167.9921 0009849 196.3285 163.7659 15.66636630  8902

Track RASSVET-3 28 in real time with AllMySat

Download on the App Store